Location: Stara Lesna
(49.1528°N, 20.2911°E)
Time: 17:18:55
(UTC+02:00)

USA 267 - Pass Details

Date: 21 September 2019
Orbit: 1102 x 1106 km, 123.0° (Epoch: 17 October)

Event Time Altitude Azimuth Distance (km) Brightness Sun altitude
Rises 04:38:54 0° 98° (E) 3,916 7.2 -17.4°
Reaches altitude 10° 04:41:25 10° 95° (E) 2,960 6.5 -17.0°
Maximum altitude 04:47:46 57° 19° (NNE) 1,285 3.8 -16.0°
Drops below altitude 10° 04:54:09 10° 303° (WNW) 2,968 5.2 -15.1°
Enters shadow 04:55:38 - 300° (WNW) 3,530 5.5 -14.8°
